Weather History for Olive Branch, MS

Change the Weather History Date:

Friday, February 1, 2013

  Actual Average (KMEM) Record (KMEM)
Temperature  
Mean Temperature 27 °F 42 °F  
Max Temperature 33 °F 51 °F 77 °F (1911)
Min Temperature 21 °F 34 °F 2 °F (1899)
Degree Days  
Heating Degree Days 38 23  
Month to date heating degree days 23  
Since 1 July heating degree days 1925  
Cooling Degree Days 0 0  
Month to date cooling degree days 0  
Year to date cooling degree days 1  
Moisture  
Dew Point 15 °F    
Average Humidity 60    
Maximum Humidity 75    
Minimum Humidity 38    
Precipitation  
Precipitation 0.00 in 0.16 in 1.57 in (1897)
Month to date precipitation 0.16  
Year to date precipitation 4.14  
Snow  
Snow 0.00 in 0.10 in 4.60 in (1985)
Month to date snowfall 0.1  
Since 1 July snowfall 2.2  
Snow Depth -    
Sea Level Pressure  
Sea Level Pressure 30.40 in    
Wind  
Wind Speed 9 mph (North)    
Max Wind Speed 20 mph    
Max Gust Speed 25 mph    
Visibility 10 miles    
Events      
T = Trace of Precipitation, MM = Missing Value Source: NWS Daily Summary

Daily Weather History Graph

Daily Weather History Graph

Search for Another Location

Airport:

Trip Planner

Search our weather history database for the weather conditions in past years. The results will help you decide how hot, cold, wet, or windy it might be!

Date:

Astronomy

Feb. 01, 2013 Rise Set
Actual Time 6:57 AM CST 5:28 PM CST
Civil Twilight 6:31 AM CST 5:54 PM CST
Nautical Twilight 6:00 AM CST 6:25 PM CST
Astronomical Twilight 5:31 AM CST 6:54 PM CST
Moon 11:18 PM CST (2/1) 9:46 AM CST (2/1)
Length of Visible Light 11h 23m
Length of Day
10h 30m
Waning Gibbous, 70% of the Moon is Illuminated
Feb 1
Waning Gibbous
Feb 3
Last Quarter
Feb 10
New
Feb 17
First Quarter
Feb 25
Full

Hourly Weather History & Observations

Time (CST) Temp. Windchill Dew Point Humidity Pressure Visibility Wind Dir Wind Speed Gust Speed Precip Events Conditions
12:15 AM 32.0 °F 23.0 °F 24.8 °F 75% 30.34 in 10.0 mi NNW 11.5 mph - N/A   Scattered Clouds
12:35 AM 32.0 °F 22.1 °F 23.0 °F 69% 30.34 in 9.0 mi NNW 13.8 mph 18.4 mph 0.00 in   Scattered Clouds
12:55 AM 30.2 °F 17.8 °F 17.6 °F 60% 30.35 in 10.0 mi NNW 19.6 mph 25.3 mph 0.00 in   Partly Cloudy
1:15 AM 30.2 °F 19.8 °F 17.6 °F 60% 30.36 in 9.0 mi NNW 13.8 mph - 0.00 in   Clear
1:35 AM 28.4 °F 18.5 °F 19.4 °F 69% 30.36 in 10.0 mi North 11.5 mph - 0.00 in   Clear
1:55 AM 28.4 °F 17.5 °F 19.4 °F 69% 30.36 in 10.0 mi North 13.8 mph 17.3 mph 0.00 in   Clear
2:15 AM 28.4 °F 18.5 °F 19.4 °F 69% 30.38 in 9.0 mi North 11.5 mph - 0.00 in   Clear
2:35 AM 28.4 °F 18.5 °F 19.4 °F 69% 30.38 in 10.0 mi NNW 11.5 mph - 0.00 in   Clear
2:55 AM 26.6 °F 17.5 °F 19.4 °F 74% 30.39 in 10.0 mi North 9.2 mph - 0.00 in   Clear
3:15 AM 26.6 °F 15.2 °F 17.6 °F 69% 30.39 in 8.0 mi NNW 13.8 mph - 0.00 in   Clear
3:35 AM 26.6 °F 16.2 °F 17.6 °F 69% 30.39 in 10.0 mi North 11.5 mph 18.4 mph 0.00 in   Clear
3:55 AM 26.6 °F 15.2 °F 17.6 °F 69% 30.41 in 10.0 mi NNW 13.8 mph - 0.00 in   Clear
4:15 AM 24.8 °F 14.6 °F 15.8 °F 69% 30.42 in 10.0 mi North 10.4 mph - N/A   Clear
4:35 AM 24.8 °F 14.6 °F 15.8 °F 69% 30.42 in 8.0 mi NNW 10.4 mph - 0.00 in   Clear
4:55 AM 23.0 °F 12.4 °F 15.8 °F 74% 30.42 in 10.0 mi North 10.4 mph - 0.00 in   Clear
5:15 AM 23.0 °F 12.4 °F 15.8 °F 74% 30.44 in 10.0 mi North 10.4 mph - 0.00 in   Clear
5:35 AM 23.0 °F 11.1 °F 15.8 °F 74% 30.44 in 8.0 mi North 12.7 mph - 0.00 in   Clear
5:55 AM 23.0 °F 12.4 °F 14.0 °F 68% 30.46 in 9.0 mi North 10.4 mph - 0.00 in   Clear
6:50 AM 21.2 °F 10.9 °F 8.6 °F 58% 30.47 in 10.0 mi NNE 9.2 mph - N/A   Scattered Clouds
7:50 AM 21.2 °F 11.7 °F 10.4 °F 63% 30.50 in 10.0 mi NNE 8.1 mph - N/A   Partly Cloudy
8:50 AM 23.0 °F 14.7 °F 10.4 °F 59% 30.52 in 10.0 mi North 6.9 mph - N/A   Partly Cloudy
10:50 AM 26.6 °F 20.0 °F 10.4 °F 51% 30.54 in 10.0 mi NE 5.8 mph - N/A   Clear
11:50 AM 30.2 °F 25.4 °F 10.4 °F 44% 30.52 in 10.0 mi East 4.6 mph - N/A   Clear
12:50 PM 32.0 °F 27.5 °F 10.4 °F 41% 30.48 in 10.0 mi East 4.6 mph - N/A   Clear
1:50 PM 32.0 °F 27.5 °F 10.4 °F 41% 30.46 in 10.0 mi ENE 4.6 mph - N/A   Clear
2:50 PM 33.8 °F - 10.4 °F 38% 30.44 in 10.0 mi Calm Calm - N/A   Clear
4:50 PM 33.8 °F - 12.2 °F 41% 30.40 in 10.0 mi Calm Calm - N/A   Clear
5:50 PM 32.0 °F - 12.2 °F 44% 30.38 in 10.0 mi Calm Calm - N/A   Clear
6:50 PM 32.0 °F - 14.0 °F 48% 30.38 in 10.0 mi Calm Calm - N/A   Clear
7:50 PM 30.2 °F - 14.0 °F 51% 30.37 in 10.0 mi Calm Calm - N/A   Clear
8:15 PM 30.2 °F - 14.0 °F 51% 30.37 in 10.0 mi Calm Calm - 0.00 in   Clear
8:35 PM 30.2 °F - 14.0 °F 51% 30.37 in 8.0 mi Calm Calm - 0.00 in   Clear
8:55 PM 30.2 °F - 14.0 °F 51% 30.37 in 9.0 mi Calm Calm - 0.00 in   Clear
9:15 PM 28.4 °F - 14.0 °F 55% 30.36 in 8.0 mi Calm Calm - 0.00 in   Clear
9:35 PM 28.4 °F 24.6 °F 14.0 °F 55% 30.35 in 10.0 mi ESE 3.5 mph - 0.00 in   Clear
9:55 PM 28.4 °F 22.2 °F 17.6 °F 64% 30.34 in 10.0 mi SE 5.8 mph - 0.00 in   Clear
10:15 PM 28.4 °F - 15.8 °F 59% 30.33 in 10.0 mi Calm Calm - 0.00 in   Clear
10:35 PM 28.4 °F - 15.8 °F 59% 30.33 in 10.0 mi Calm Calm - 0.00 in   Clear
10:55 PM 28.4 °F 23.3 °F 15.8 °F 59% 30.33 in 9.0 mi SE 4.6 mph - 0.00 in   Clear
11:15 PM 28.4 °F 23.3 °F 15.8 °F 59% 30.33 in 10.0 mi East 4.6 mph - 0.00 in   Clear
11:35 PM 28.4 °F - 15.8 °F 59% 30.32 in 8.0 mi Calm Calm - 0.00 in   Clear
11:55 PM 28.4 °F - 17.6 °F 64% 30.31 in 10.0 mi Calm Calm - 0.00 in   Clear